aerodrome LA FERTE GAUCHER, LFFG, pilots, aviation, flying | pilotspace.eu

LA FERTE GAUCHER

aerodrome LA FERTE GAUCHER

ICAO/ID: LFFG
France
web: Réservé au parachutisme et aux avions de servitude
show on the map

LFPM 231630Z AUTO 15004KT 9999 NSC 13/11 Q1014

TAF LFPG 231100Z 2312/2418 16007KT CAVOK PROB30 TEMPO 2319/2321 4000 BR BECMG 2322/2324 36010KT BKN012 TEMPO 2402/2407 3000 -RA BKN004 BECMG 2409/2411 03010KT SCT012 BKN025 TX16/2315Z TN09/2406Z

general information

altitude: 538 ft
latitude: 48 45 21 N
longitude: 003 16 36 E

traffic information

RWY: 05/23: 3,609 ft (1,100 m) — surface unknown
report copyright

Online pilot logbook: free for each registered member! http://www.pilotlogbook.eu


last flights

RECENTLY ADDED

The Cheyenne

The Cheyenne

21/11/2014 (16x)

lukin

Beauty Kunovice

Beauty Kunovice

14/10/2014 (12x)

Jenki

CIAF 2014

CIAF 2014

07/09/2014 (23x)

Jenki

Virus start na bramkę

Virus start na bramkę ...

04/09/2014 (4x)

oslkj

The Arrow

The Arrow

15/08/2014 (29x)

lukin

STYLUS X3

STYLUS X3 "Beauty"

01/08/2014 (9x)

Jenki

Poprad

Poprad

31/07/2014 (44x)

Jenki

Let.příručka ALTO

09/03/2014 (15x)

Roman Máca